Current weather by "City, St" or "zip code"  
 

Current Conditions: Maryville Northwest Missouri Regional Airport, MO

Fair


10.0 F

Last Updated on Jan 19 2022, 9:55 pm CST
Humidity: 62%
Wind Speed: N 10.4 G 17.3 mph
Barometer 30.61 in
Dewpoint: -0.9 F
Visibility: 10.00 mi
Precip: --
Heat Index: NA
Wind Chill: -4 F
Current conditions at:

Maryville Northwest Missouri Regional Airport, MO (KEVU)

Lat: 40.3525 Lon: 94.915

Local Radar Image active severe weather and emergency alerts image image weather storm and storm spotter reports image weather observation monitoring service image
Local
Radar
Active
Alerts
Storm Reports Obs
Monitoring

Sign-up For Email & Text Message Weather Alert Notification Services



Advertise Here

Observation History for Maryville Northwest Missouri Regional Airport, MO


Time Wind
(mph)
Vis
(mi)
Weather Precip (in) Temperature (F) Relative
Humidity
Wind
Chill
(F)
Heat
Index
(F)
Pressure
Air Dwpt altimeter
(in)
sea level
(mb)
Rmks
9:55 pm CST N 10.4 G 17.3 10.00 Fair -- 10.0 -0.9 62% -4 NA 30.61 M
8:55 pm CST N 11.5 G 17.3 10.00 Fair -- 10.0 0.1 63% -5 NA 30.59 M
7:55 pm CST N 11.5 G 18.4 10.00 Fair -- 12.0 0.5 60% -2 NA 30.57 M
6:55 pm CST N 16.1 10.00 Fair -- 14.0 3.7 63% -2 NA 30.54 M
5:55 pm CST N 13.8 G 19.6 10.00 Fair -- 15.0 4.5 63% NA NA 30.50 M
4:55 pm CST N 16.1 G 26.5 10.00 Fair -- 16.0 4.1 59% 1 NA 30.47 M
3:55 pm CST N 17.3 G 25.3 10.00 Fair -- 17.0 5.5 59% 1 NA 30.45 M
2:55 pm CST N 12.7 G 25.3 10.00 Fair -- 16.0 4.5 61% 2 NA 30.42 M
1:55 pm CST N 17.3 G 23.0 10.00 Fair -- 16.0 5.7 63% NA NA 30.40 M
12:55 pm CST N 16.1 G 21.9 10.00 Overcast -- 16.0 6.3 65% 1 NA 30.40 M
11:55 am CST N 16.1 G 27.6 10.00 Fair -- 17.0 6.1 62% 2 NA 30.39 M
10:55 am CST N 17.3 G 27.6 10.00 Mostly Cloudy -- 15.0 5.5 65% -1 NA 30.40 M
9:55 am CST N 15.0 G 24.2 10.00 Overcast -- 16.0 7.0 68% 1 NA 30.36 M
8:55 am CST N 17.3 G 26.5 10.00 Partly Cloudy -- 16.0 6.8 66% NA NA 30.31 M
7:55 am CST N 17.3 G 25.3 10.00 Overcast -- 17.0 7.7 66% 1 NA 30.27 M
6:55 am CST N 18.4 G 26.5 10.00 Partly Cloudy -- 19.0 10.0 68% 4 NA 30.22 M
5:55 am CST N 17.3 G 29.9 10.00 Overcast -- 21.0 11.7 68% 7 NA 30.19 M
4:55 am CST N 17.3 G 28.8 10.00 Mostly Cloudy -- 23.0 13.6 67% 9 NA 30.15 M
3:55 am CST N 16.1 G 25.3 10.00 Partly Cloudy -- 26.0 16.7 69% 13 NA 30.12 M
2:55 am CST N 17.3 G 28.8 10.00 Partly Cloudy -- 29.0 20.5 71% 17 NA 30.07 M
1:55 am CST N 16.1 G 24.2 10.00 Partly Cloudy -- 32.0 25.0 75% 21 NA 30.04 M
12:55 am CST N 17.3 G 24.2 10.00 Partly Cloudy -- 34.0 28.0 78% 23 NA 30.00 M
11:55 pm CST N 13.8 G 23.0 10.00 Mostly Cloudy -- 37.0 31.8 81% 28 NA 29.97 M
10:55 pm CST N 6.9 10.00 Overcast -- 39.0 34.7 84% 34 NA 29.94 M

Regional Weather Observation


Shenandoah Municipal, IA (KSDA)

Fair
7.0 F

Maryville Northwest Missouri Regional Airport, MO (KEVU)

Fair
10.0 F

Nebraska City, Nebraska City Municipal Airport, NE (KAFK)

Fair
8.0 F

Falls City, Brenner Field Airport, NE (KFNB)

Fair
11.0 F

Plattsmouth, Plattsmouth Municipal Airport, NE (KPMV)

Fair
9.0 F

Red Oak, IA (KRDK)

Fair
7.0 F

Advertise Here


Advertise Here